Regional Weather Roundup
Issued by NWS Sioux Falls, SD

Home | Current Version | Previous Version | Graphics & Text | Print | Product List | Glossary Off
Versions: 1 2 3 4 5 6 7 8 9 10 11 12 13 14 15 16 17 18 19 20 21 22 23 24 25 26 27 28 29 30 31 32 33 34 35 36 37 38 39 40 41 42 43 44 45 46 47 48 49 50

000
ASUS43 KFSD 251602
RWRFSD

WEATHER ROUNDUP FOR SE SOUTH DAKOTA/SW MINNESOTA/NW IOWA
NATIONAL WEATHER SERVICE SIOUX FALLS SD
1000 AM CST THU DEC 25 2014

NOTE: "FAIR" INDICATES FEW OR NO CLOUDS BELOW 12,000 FEET WITH NO
SIGNIFICANT WEATHER AND OR OBSTRUCTIONS TO VISIBILITY.


SDZ038>040-050-052>070-251700-
SOUTHEAST SOUTH DAKOTA

CITY           SKY/WX    TMP DP  RH WIND       PRES   REMARKS
CHAMBERLAIN    CLOUDY    32  30  92 N8        29.65R WCI  25
HURON          LGT SNOW  29  27  92 N7        29.68R FOG     WCI  22
MADISON        PTSUNNY   28  28 100 E7        29.63R WCI  21
MITCHELL       CLOUDY    31  28  89 NE7       29.65R WCI  24
SIOUX FALLS    PTSUNNY   32  28  85 E7        29.65R WCI  26
WINNER         CLOUDY    31  28  89 N10       29.63R WCI  22
YANKTON        PTSUNNY   28  25  86 NE6       29.63S WCI  22
$$

MNZ071-072-080-081-089-090-097-098-251700-
SOUTHWEST MINNESOTA

CITY           SKY/WX    TMP DP  RH WIND       PRES   REMARKS
FAIRMONT       CLOUDY    32  27  80 S10       29.71R WCI  24
JACKSON        CLOUDY    32  28  86 S5        29.69R WCI  27
LUVERNE        MOSUNNY   32  28  86 E6        29.66R WCI  26
MARSHALL       PTSUNNY   30  27  86 CALM      29.69R
MONTEVIDEO     LGT SNOW  30  30 100 CALM      29.70R
PIPESTONE      PTSUNNY   28  28 100 E3        29.64R FOG
REDWOOD FALLS  CLOUDY    32  29  88 S7        29.69R FOG     WCI  26
TRACY          PTSUNNY   32  29  90 W5        29.69R WCI  27
WINDOM         PTSUNNY   30  28  93 CALM      29.68R
WORTHINGTON    CLOUDY    30 -17  12 CALM      29.68R
$$

IAZ001>003-012>014-020>022-031-032-NEZ013-014-SDZ071-251700-
NORTHWEST IOWA

CITY           SKY/WX    TMP DP  RH WIND       PRES   REMARKS
CHEROKEE       CLOUDY    32  29  89 S7        29.68R WCI  26
DENISON        PTSUNNY   34  28  80 S12       29.66R WCI  25
ESTHERVILLE    PTSUNNY   30  28  92 S9        29.69R WCI  22
ORANGE CITY    PTSUNNY   34  27  75 S7        29.65R WCI  28
SIOUX CITY     PTSUNNY   32  28  85 SE10      29.65R WCI  24
SPENCER        PTSUNNY   32  28  85 SE7       29.68R WCI  26
$$

ABBREVIATIONS USED IN REMARKS
   TC - TEMPERATURE IN CELSIUS
  WCI - WIND CHILL INDEX
   HX - HEAT INDEX
  VSB - VISIBILITY



USA.gov is the U.S. government's official web portal to all federal, state and local government web resources and services.